Location: Clarion
(42.7316°N, 93.7330°W)
Time: 08:51:09
(UTC+00:00)

Cosmos 2369 Rocket - Pass Details

Date: 22 April 2026
Orbit: 829 x 850 km, 71.0° (Epoch: 17 May)

Event Time Altitude Azimuth Distance (km) Brightness Sun altitude
Rises 01:24:03 0° 348° (NNW) 3,381 5.8 -4.3°
Reaches altitude 10° 01:27:52 10° 14° (NNE) 2,442 4.7 -4.9°
Maximum altitude 01:30:39 14° 44° (NE) 2,179 4.1 -5.4°
Drops below altitude 10° 01:33:27 10° 74° (ENE) 2,438 4.1 -5.9°
Enters shadow 01:35:27 - 90° (E) 2,879 4.4 -6.2°
